CW0234 Weather Reports


time (UTC)temp
F
wind
direction
speed
knots
gust
knots
rain 1hr
in
rain 24hr
in
rain mn
in
humidity
%
barometer
mb
20260505233918 62 174 0.0 0.9 0.00 0.00 0.00 71 1014.4
20260505233416 62 171 0.9 0.9 0.00 0.00 0.00 71 1014.2
20260505232913 62 176 0.0 0.0 0.00 0.00 0.00 71 1014.3
20260505232411 62 177 0.0 0.0 0.00 0.00 0.00 70 1014.4
20260505231907 62 163 1.7 2.6 0.00 0.00 0.00 70 1014.4
20260505231405 62 169 0.0 0.9 0.00 0.00 0.00 70 1014.4
20260505230903 62 166 0.9 1.7 0.00 0.00 0.00 71 1014.6
20260505230400 62 169 0.0 0.0 0.00 0.00 0.00 71 1014.6
20260505225856 63 176 0.9 0.9 0.00 0.00 0.00 69 1014.4
20260505225354 63 172 0.0 0.0 0.00 0.00 0.00 69 1014.5
20260505224849 63 175 0.0 0.0 0.00 0.00 0.00 69 1014.4
20260505224347 62 173 0.0 0.0 0.00 0.00 0.00 69 1014.5
20260505223843 62 169 0.0 0.0 0.00 0.00 0.00 69 1014.4
20260505223340 63 190 0.0 0.9 0.00 0.00 0.00 69 1014.6
20260505222836 62 167 0.0 0.9 0.00 0.00 0.00 69 1014.4
20260505222332 62 169 0.9 0.9 0.00 0.00 0.00 69 1014.5
20260505221830 63 172 0.9 1.7 0.00 0.00 0.00 67 1014.6
20260505221326 63 180 0.9 0.9 0.00 0.00 0.00 67 1014.7
20260505220823 62 184 0.9 0.9 0.00 0.00 0.00 69 1014.7
20260505220320 62 170 0.0 0.9 0.00 0.00 0.00 68 1014.8
20260505215818 62 177 1.7 1.7 0.00 0.00 0.00 69 1014.7
20260505215316 62 178 1.7 1.7 0.00 0.00 0.00 68 1014.7
20260505214814 62 176 0.0 0.0 0.00 0.00 0.00 69 1014.8
20260505214311 61 221 1.7 2.6 0.00 0.00 0.00 70 1014.8
20260505213808 61 176 0.0 0.0 0.00 0.00 0.00 71 1014.8
20260505213306 61 176 0.0 0.0 0.00 0.00 0.00 70 1014.9
20260505212801 62 171 0.9 0.9 0.00 0.00 0.00 69 1014.8
20260505212259 61 172 0.0 0.0 0.00 0.00 0.00 69 1015.0
20260505211755 61 173 0.9 0.9 0.00 0.00 0.00 69 1015.2
20260505211253 61 177 0.9 0.9 0.00 0.00 0.00 69 1015.1
20260505210749 61 170 1.7 2.6 0.00 0.00 0.00 69 1015.1
20260505210246 61 178 0.0 0.0 0.00 0.00 0.00 69 1014.9
20260505205743 61 177 0.0 0.9 0.00 0.00 0.00 69 1014.8
20260505205242 61 174 0.0 0.0 0.00 0.00 0.00 69 1015.0
20260505204738 62 175 0.9 0.9 0.00 0.00 0.00 69 1015.2
20260505204236 62 177 0.0 0.0 0.00 0.00 0.00 68 1015.1
20260505203732 61 173 0.0 0.0 0.00 0.00 0.00 69 1015.1
20260505203230 61 178 0.0 0.0 0.00 0.00 0.00 69 1015.0
20260505202725 62 169 0.0 0.9 0.00 0.00 0.00 68 1015.1
20260505202221 62 187 0.9 0.9 0.00 0.00 0.00 67 1015.1
20260505201718 63 172 0.0 0.9 0.00 0.00 0.00 66 1015.0
20260505201216 63 193 0.9 0.9 0.00 0.00 0.00 67 1015.1
20260505200714 61 171 0.0 0.0 0.00 0.00 0.00 70 1015.2
20260505200211 61 174 0.9 0.9 0.00 0.00 0.00 70 1015.2
20260505195706 61 174 0.0 0.9 0.00 0.00 0.00 69 1015.3
20260505195204 61 181 0.0 0.9 0.00 0.00 0.00 70 1015.7
20260505194701 61 169 0.0 0.0 0.00 0.00 0.00 70 1015.5
20260505194157 62 346 1.7 1.7 0.00 0.00 0.00 69 1015.5
20260505193653 61 171 0.0 0.0 0.00 0.00 0.00 70 1015.5
20260505193151 61 175 0.9 0.9 0.00 0.00 0.00 71 1015.6
20260505192649 61 175 0.0 0.9 0.00 0.00 0.00 71 1015.7
20260505192146 60 173 0.0 0.0 0.00 0.00 0.00 71 1015.4
20260505191645 61 173 1.7 1.7 0.00 0.00 0.00 71 1015.5
20260505191143 60 168 0.0 0.9 0.00 0.00 0.00 72 1015.5
20260505190638 60 185 0.9 1.7 0.00 0.00 0.00 72 1015.3
20260505190138 60 172 0.0 0.0 0.00 0.00 0.00 72 1015.6
20260505185635 60 209 2.6 2.6 0.00 0.00 0.00 72 1015.4
20260505185132 59 168 0.9 0.9 0.00 0.00 0.00 74 1015.2
20260505184628 60 219 0.9 1.7 0.00 0.00 0.00 72 1015.3
20260505184125 59 180 1.7 1.7 0.00 0.00 0.00 71 1015.4
20260505183622 59 168 0.9 0.9 0.00 0.00 0.00 73 1015.3
20260505183120 59 256 1.7 2.6 0.00 0.00 0.00 71 1015.2
20260505182616 59 170 0.9 0.9 0.00 0.00 0.00 72 1015.6
20260505182113 59 172 0.9 0.9 0.00 0.00 0.00 73 1015.4
20260505181609 58 172 0.0 0.0 0.00 0.00 0.00 73 1015.5
20260505181107 58 175 0.0 0.9 0.00 0.00 0.00 72 1015.2
20260505180603 58 171 0.0 0.0 0.00 0.00 0.00 73 1015.3
20260505180100 58 174 0.9 0.9 0.00 0.00 0.00 72 1015.2
20260505175556 58 178 0.9 1.7 0.00 0.00 0.00 72 1015.1
20260505175053 58 177 0.0 0.9 0.00 0.00 0.00 71 1015.2
20260505174550 58 173 0.0 0.0 0.00 0.00 0.00 72 1015.0
20260505174045 58 170 0.0 0.0 0.00 0.00 0.00 72 1014.9
20260505173542 58 171 0.0 0.0 0.00 0.00 0.00 73 1015.0
20260505173039 58 172 0.0 0.0 0.00 0.00 0.00 72 1014.9
20260505172537 58 172 0.0 0.0 0.00 0.00 0.00 71 1015.0
20260505172033 58 170 0.0 0.0 0.00 0.00 0.00 71 1015.0
20260505171528 58 165 0.9 0.9 0.00 0.00 0.00 72 1015.0
20260505171025 58 172 0.0 0.0 0.00 0.00 0.00 72 1014.9
20260505170522 58 172 0.0 0.9 0.00 0.00 0.00 72 1014.8
20260505170018 58 170 0.0 0.0 0.00 0.00 0.00 72 1014.7
20260505165514 58 170 0.0 0.0 0.00 0.00 0.00 73 1014.8
20260505165009 58 169 0.0 0.0 0.00 0.00 0.00 72 1014.6
20260505164500 58 171 0.0 0.9 0.00 0.00 0.00 72 1014.8
20260505163958 58 169 0.9 0.9 0.00 0.00 0.00 73 1015.0
20260505163456 57 166 0.0 0.0 0.00 0.00 0.00 73 1014.9
20260505162956 57 170 0.0 0.0 0.00 0.00 0.00 73 1014.7
20260505162451 57 171 0.9 0.9 0.00 0.00 0.00 74 1014.6
20260505161948 57 174 0.0 0.0 0.00 0.00 0.00 74 1014.5
20260505161444 57 171 0.9 0.9 0.00 0.00 0.00 74 1014.5
20260505160942 56 171 0.0 0.0 0.00 0.00 0.00 74 1014.6
20260505160440 56 173 0.0 0.0 0.00 0.00 0.00 76 1014.6
20260505152916 56 172 0.0 0.0 0.00 0.00 0.00 76 1014.5
20260505152408 56 171 0.0 0.0 0.00 0.00 0.00 76 1014.3
20260505151907 55 171 0.0 0.0 0.00 0.00 0.00 77 1014.4
20260505151404 55 171 0.0 0.0 0.00 0.00 0.00 77 1014.4
20260505150901 55 171 0.0 0.0 0.00 0.00 0.00 77 1014.6
20260505150358 55 171 0.0 0.0 0.00 0.00 0.00 77 1014.4
20260505140323 54 172 0.0 0.0 0.00 0.00 0.00 78 1014.0
20260505130246 54 172 0.0 0.0 0.00 0.00 0.00 79 1013.6
20260505124737 54 172 0.0 0.0 0.00 0.00 0.00 78 1013.9
20260505124234 53 172 0.0 0.0 0.00 0.00 0.00 78 1013.7
20260505123729 53 173 0.0 0.0 0.00 0.00 0.00 78 1013.8
20260505123226 54 172 0.0 0.0 0.00 0.00 0.00 79 1013.9
20260505122722 54 172 0.0 0.0 0.00 0.00 0.00 78 1013.8
20260505122220 54 173 0.0 0.0 0.00 0.00 0.00 78 1013.8
20260505121716 54 170 0.0 0.0 0.00 0.00 0.00 78 1014.0
20260505121213 54 171 0.0 0.0 0.00 0.00 0.00 77 1013.9
20260505120709 54 170 0.0 0.0 0.00 0.00 0.00 77 1014.2
20260505120205 54 169 0.0 0.0 0.00 0.00 0.00 77 1014.2
20260505115659 54 170 0.0 0.0 0.00 0.00 0.00 77 1013.8
20260505115157 54 170 0.0 0.0 0.00 0.00 0.00 77 1014.2
20260505114654 54 169 0.0 0.0 0.00 0.00 0.00 77 1013.9
20260505114150 54 169 0.0 0.0 0.00 0.00 0.00 77 1014.1
20260505113646 54 172 0.0 0.0 0.00 0.00 0.00 77 1014.1
20260505113143 54 172 0.0 0.0 0.00 0.00 0.00 77 1014.2
20260505112640 54 175 0.0 0.0 0.00 0.00 0.00 76 1014.2
20260505112138 54 175 0.0 0.0 0.00 0.00 0.00 76 1013.8
20260505111637 54 175 0.0 0.0 0.00 0.00 0.00 76 1014.2
20260505111133 54 180 0.9 0.9 0.00 0.00 0.00 76 1013.8
20260505110629 54 170 0.0 0.0 0.00 0.00 0.00 75 1013.8
20260505110127 54 179 0.0 0.0 0.00 0.00 0.00 75 1014.0
20260505102103 54 167 0.0 0.0 0.00 0.00 0.00 74 1014.0
20260505101601 54 174 0.0 0.0 0.00 0.00 0.00 74 1014.0
20260505101057 54 172 0.0 0.0 0.00 0.00 0.00 74 1014.0
20260505100553 54 171 0.0 0.9 0.00 0.00 0.00 73 1014.1
20260505100050 54 169 0.0 0.0 0.00 0.00 0.00 73 1014.1
20260505095547 54 179 0.0 0.9 0.00 0.00 0.00 73 1014.2
20260505095043 54 180 0.9 0.9 0.00 0.00 0.00 73 1014.1
20260505094540 54 171 0.0 0.0 0.00 0.00 0.00 72 1014.1
20260505094036 54 178 0.0 0.9 0.00 0.00 0.00 72 1014.0
20260505093533 54 173 0.0 0.0 0.00 0.00 0.00 73 1014.1
20260505093030 54 175 0.9 0.9 0.00 0.00 0.00 72 1014.1
20260505092527 54 170 0.0 0.0 0.00 0.00 0.00 72 1014.3
20260505092026 55 169 0.0 0.0 0.00 0.00 0.00 72 1013.9
20260505091522 55 171 0.0 0.0 0.00 0.00 0.00 71 1014.1
20260505091020 55 168 0.0 0.0 0.00 0.00 0.00 72 1014.2
20260505090518 55 189 0.9 1.7 0.00 0.00 0.00 71 1014.3
20260505090016 55 170 0.9 0.9 0.00 0.00 0.00 71 1014.5
20260505085514 55 186 1.7 2.6 0.00 0.00 0.00 71 1014.5
20260505085011 55 169 0.9 1.7 0.00 0.00 0.00 72 1014.4
20260505084509 55 165 0.9 0.9 0.00 0.00 0.00 72 1014.5
20260505084007 55 74 2.6 2.6 0.00 0.00 0.00 73 1014.6
20260505083504 55 161 1.7 1.7 0.00 0.00 0.00 72 1014.7
20260505083000 55 228 2.6 4.3 0.00 0.00 0.00 72 1014.6
20260505082456 55 154 1.7 2.6 0.00 0.00 0.00 73 1014.7
20260505081953 55 169 0.0 0.9 0.00 0.00 0.00 74 1014.7
20260505081450 55 169 0.0 0.9 0.00 0.00 0.00 74 1014.6
20260505080946 55 357 2.6 4.3 0.00 0.00 0.00 74 1014.7
20260505080443 55 129 1.7 2.6 0.00 0.00 0.00 75 1014.9
20260505075938 55 148 0.9 1.7 0.00 0.00 0.00 77 1014.8
20260505075435 55 174 1.7 1.7 0.00 0.00 0.00 79 1014.7
20260505074933 55 170 0.9 0.9 0.00 0.00 0.00 80 1014.6
20260505074430 55 161 0.0 0.0 0.00 0.00 0.00 81 1014.7
20260505073927 56 125 1.7 1.7 0.00 0.00 0.00 81 1014.6
20260505073425 56 176 1.7 1.7 0.00 0.00 0.00 82 1014.8
20260505072921 56 175 0.9 0.9 0.00 0.00 0.00 82 1014.7
20260505072417 56 191 0.9 1.7 0.00 0.00 0.00 82 1014.6
20260505071914 56 176 0.0 0.0 0.00 0.00 0.00 82 1014.6
20260505071410 56 169 0.0 0.0 0.00 0.00 0.00 81 1014.7
20260505070908 56 172 0.0 0.0 0.00 0.00 0.00 81 1014.5
20260505070404 56 174 0.0 0.0 0.00 0.00 0.00 81 1014.3
20260505065900 56 174 0.0 0.0 0.00 0.00 0.00 82 1014.2
20260505065357 55 166 0.9 0.9 0.00 0.00 0.00 82 1014.3
20260505064854 55 170 0.0 0.0 0.00 0.00 0.00 82 1014.3
20260505064351 55 170 0.0 0.0 0.00 0.00 0.00 82 1014.2
20260505063850 55 172 0.0 0.0 0.00 0.00 0.00 82 1014.4
20260505063345 55 175 0.0 0.0 0.00 0.00 0.00 81 1014.2
20260505062842 55 171 0.0 0.0 0.00 0.00 0.00 81 1014.2
20260505062339 55 170 0.0 0.0 0.00 0.00 0.00 81 1014.2
20260505061836 55 167 0.0 0.0 0.00 0.00 0.00 80 1014.2
20260505061334 56 196 1.7 1.7 0.00 0.00 0.00 80 1014.1
20260505060831 56 170 0.0 0.0 0.00 0.00 0.00 80 1014.2
20260505060328 56 170 0.0 0.9 0.00 0.00 0.00 79 1014.1
20260505055824 56 175 0.0 0.0 0.00 0.00 0.00 78 1014.2
20260505055320 56 190 0.9 1.7 0.00 0.00 0.00 78 1014.1
20260505054817 56 175 0.0 0.9 0.00 0.00 0.00 78 1014.4
20260505054314 57 181 0.9 0.9 0.00 0.00 0.00 78 1014.4
20260505053813 57 169 0.0 0.0 0.00 0.00 0.00 77 1014.2
20260505053309 57 172 0.0 0.0 0.00 0.00 0.00 77 1014.6
20260505052806 57 176 0.0 0.9 0.00 0.00 0.00 77 1014.6
20260505052304 57 172 0.0 0.0 0.00 0.00 0.00 77 1014.8
20260505051800 57 172 0.0 0.9 0.00 0.00 0.00 77 1014.7
20260505051258 57 171 0.0 0.0 0.00 0.00 0.00 76 1014.6
20260505050756 57 170 0.0 0.9 0.00 0.00 0.00 76 1014.7
20260505050254 57 169 0.9 0.9 0.00 0.00 0.00 76 1014.6
20260505041729 59 185 1.7 2.6 0.00 0.00 0.00 72 1013.9
20260505041226 59 225 1.7 1.7 0.00 0.00 0.00 71 1014.1
20260505040723 59 269 1.7 2.6 0.00 0.00 0.00 71 1014.0
20260505040220 59 22 3.5 4.3 0.00 0.00 0.00 71 1013.9
20260505035717 59 165 2.6 2.6 0.00 0.00 0.00 72 1013.8
20260505035213 59 174 0.0 0.9 0.00 0.00 0.00 73 1013.7
20260505034710 59 173 0.9 0.9 0.00 0.00 0.00 73 1013.5
20260505034207 59 178 0.9 0.9 0.00 0.00 0.00 72 1013.7
20260505033703 59 0 2.6 4.3 0.00 0.00 0.00 71 1013.6
20260505033201 59 221 1.7 1.7 0.00 0.00 0.00 71 1013.3
20260505032659 59 135 2.6 2.6 0.00 0.00 0.00 70 1013.3
20260505032155 59 178 1.7 1.7 0.00 0.00 0.00 70 1013.3
20260505031652 59 221 1.7 1.7 0.00 0.00 0.00 70 1013.6
20260505031149 59 175 2.6 2.6 0.00 0.00 0.00 70 1013.3
20260505030646 59 196 1.7 1.7 0.00 0.00 0.00 70 1013.5
20260505030141 59 161 1.7 2.6 0.00 0.00 0.00 70 1013.5
20260505025638 59 210 1.7 4.3 0.00 0.00 0.00 69 1013.4
20260505025136 60 201 1.7 2.6 0.00 0.00 0.00 69 1013.6
20260505024633 60 165 0.9 1.7 0.00 0.00 0.00 69 1013.5
20260505024131 60 288 2.6 2.6 0.00 0.00 0.00 69 1013.5
20260505023628 60 178 0.9 0.9 0.00 0.00 0.00 69 1013.3
20260505023125 60 193 0.9 1.7 0.00 0.00 0.00 68 1013.4
20260505022623 60 354 3.5 5.2 0.00 0.00 0.00 67 1013.5
20260505022119 60 193 1.7 1.7 0.00 0.00 0.00 67 1013.3
20260505021616 60 166 0.9 0.9 0.00 0.00 0.00 67 1013.1
20260505021113 60 313 3.5 4.3 0.00 0.00 0.00 67 1013.4
20260505020608 60 96 1.7 1.7 0.00 0.00 0.00 66 1013.3
20260505020105 61 174 0.9 1.7 0.00 0.00 0.00 65 1013.1
20260505015602 61 215 1.7 1.7 0.00 0.00 0.00 64 1013.2
20260505015058 61 170 0.9 1.7 0.00 0.00 0.00 63 1013.0
20260505014555 61 189 1.7 1.7 0.00 0.00 0.00 63 1013.3
20260505014052 61 325 2.6 4.3 0.00 0.00 0.00 63 1013.2
20260505013549 61 24 2.6 4.3 0.00 0.00 0.00 63 1013.2
20260505013047 61 334 2.6 4.3 0.00 0.00 0.00 63 1013.3
20260505012545 61 142 2.6 4.3 0.00 0.00 0.00 63 1013.1
20260505012042 61 172 0.9 0.9 0.00 0.00 0.00 65 1013.2
20260505011537 61 267 2.6 2.6 0.00 0.00 0.00 65 1013.6
20260505011034 62 182 1.7 2.6 0.00 0.00 0.00 65 1013.4
20260505010530 61 175 0.0 0.0 0.00 0.00 0.00 65 1013.5
20260505010027 62 193 1.7 1.7 0.00 0.00 0.00 65 1013.5
20260505005523 62 171 0.0 0.9 0.00 0.00 0.00 65 1013.5
20260505005021 62 161 1.7 1.7 0.00 0.00 0.00 65 1013.5
20260505004517 62 151 2.6 2.6 0.00 0.00 0.00 65 1013.4
20260505004014 63 191 0.9 1.7 0.00 0.00 0.00 64 1013.5
20260505003511 63 178 0.9 0.9 0.00 0.00 0.00 64 1013.4
20260505003008 63 178 0.9 0.9 0.00 0.00 0.00 63 1013.5
20260505002503 63 168 1.7 2.6 0.00 0.00 0.00 64 1013.6
20260505002002 63 197 0.9 1.7 0.00 0.00 0.00 65 1013.4
20260505001459 63 165 0.9 0.9 0.00 0.00 0.00 65 1013.3
20260505000956 63 25 1.7 4.3 0.00 0.00 0.00 64 1013.4
20260505000454 63 180 1.7 1.7 0.00 0.00 0.00 63 1013.3
20260504235951 63 286 2.6 4.3 0.00 0.00 0.00 62 1013.4
20260504235448 64 12 3.5 5.2 0.00 0.00 0.00 61 1013.1
20260504234944 64 159 1.7 1.7 0.00 0.00 0.00 60 1013.4
20260504234442 65 321 4.3 7.0 0.00 0.00 0.00 59 1013.2